Location: Sungai Bunut
(2.6333°N, 113.7333°E)
Time: 02:20:25
(UTC+00:00)

S-56A Canister/Altair - Pass Details

Date: 03 December 2023
Orbit: 640 x 2488 km, 38.9° (Epoch: 24 February)

Event Time Altitude Azimuth Distance (km) Brightness Sun altitude
Rises 00:24:54 0° 222° (SW) 4,924 11.5 28.8°
Reaches altitude 10° 00:28:43 10° 218° (SW) 3,627 11.0 29.6°
Maximum altitude 00:37:13 56° 142° (SE) 1,260 9.9 31.5°
Drops below altitude 10° 00:42:53 10° 64° (ENE) 2,463 10.7 32.8°
Sets 00:45:02 0° 59° (ENE) 3,249 11.1 33.2°
